Home > Weather > Meilen > Past weeks

Flag for Switzerland Past Weather in Meilen, Zurich, Switzerland — Yesterday and Last 2 Weeks

Now
72 °F

Mild.


Feels Like: 76 °F
Forecast: 56 / 80 °F
Wind: 6 mph from Northwest

Location: Zuerich-Fluntern

Current Time: Jul 28, 2016 at 8:23:49 PM

Latest Report: Jul 28, 2016 at 7:00 PM


Visibility: N/A

Pressure: 29.99 "Hg

Humidity: 58%

Dew Point: 56 °F

Location of MeilenLocation

Past Weather in Meilen — Graph

°F

Meilen Temperature Yesterday

Maximum temperature yesterday: 77 °F (at 5:00 PM)
Minimum temperature yesterday: 62 °F (at 5:00 AM)
Average temperature yesterday: 68 °F

High & Low Weather Summary for the Past Weeks

 TemperatureHumidityPressure
High88 °F (Jul 20, 5:00 PM)100% (Jul 19, 4:00 PM)30.37 "Hg (Jul 19, 4:00 PM)
Low47 °F (Jul 16, 5:00 AM)32% (Jul 20, 7:00 PM)29.88 "Hg (Jul 20, 7:00 PM)
Average66 °F74%30.10 "Hg
* Reported Jul 13 8:00 PM — Jul 28 7:00 PM, Meilen, Weather by CustomWeather, © 2016

Note: Actual official high and low records may vary slightly from our data, if they occured in-between our weather recording intervals... More about our weather records

Advertising

Meilen Weather History for the Previous 24 Hours

Scroll right to see more
 ConditionsComfort  
Time TempWeatherWind HumidityBarometerVisibility
7:00 PM
Thu, Jul 28
72 °FMild.6 mph58%29.99 "HgN/A
6:00 PM73 °FMild.5 mph60%29.98 "HgN/A
5:00 PM75 °FMild.8 mph54%29.98 "HgN/A
4:00 PM76 °FMild.6 mph53%29.98 "HgN/A
3:00 PM76 °FMild.7 mph48%29.99 "HgN/A
2:00 PM77 °FScattered clouds.7 mph49%30.00 "HgN/A
1:00 PM74 °FMild.6 mph55%30.03 "HgN/A
12:00 PM73 °FMild.3 mph62%30.04 "HgN/A
11:00 AM70 °FMild.2 mph72%30.06 "HgN/A
10:00 AM65 °FMild.3 mph79%30.07 "HgN/A
9:00 AM63 °FMild.No wind84%30.07 "HgN/A
8:00 AM62 °FPartly sunny.2 mph89%30.08 "HgN/A
7:00 AM61 °FCool.1 mph86%30.08 "HgN/A
6:00 AM60 °FCool.No wind92%30.09 "HgN/A
5:00 AM61 °FCool.1 mph90%30.09 "HgN/A
4:00 AM61 °FCool.1 mph90%30.09 "HgN/A
3:00 AM61 °FCool.No wind89%30.09 "HgN/A
2:00 AM63 °FMild.2 mph84%30.10 "HgN/A
1:00 AM62 °FCool.1 mph83%30.09 "HgN/A
12:00 AM64 °FMild.1 mph80%30.09 "HgN/A
11:00 PM
Wed, Jul 27
66 °FMild.3 mph72%30.09 "HgN/A
10:00 PM66 °FMild.6 mph72%30.08 "HgN/A
9:00 PM68 °FMild.7 mph66%30.05 "HgN/A
8:00 PM74 °FPartly sunny.8 mph43%30.00 "HgN/A
Weather by CustomWeather, © 2016

See weather overviewHow to use our weather pages